Wind_Speed
4 0 4 8 9 9 10 11 12 7 10 14 20 23 22 21 20 18 17 17 17 18 20 22 23 25 27 29 31 32 34 36 37 37 37 37 37 37 38 36 36 36 36 37
3 10 7 5 5 9 10 11 14 18 20 20 19 19 18 16 15 15 16 16 17 18 20 22 23 25 27 29 31 32 34 35 36 36 36 36 37 37 38 38 37 37 37 38
10 7 2 3 8 10 11 15 18 19 18 15 13 15 13 11 11 12 14 15 17 19 20 22 24 26 29 30 32 33 34 35 36 37 37 37 38 38 39 39 39 38 39 40
7 7 6 6 8 9 13 15 15 13 15 12 15 19 13 8 8 12 15 18 20 21 22 24 26 28 30 31 33 33 34 35 37 38 39 39 40 40 40 41 41 41 41 41
3 5 7 6 7 8 10 11 12 14 16 19 24 22 12 10 11 15 17 20 21 22 24 25 27 28 30 32 33 35 35 36 37 39 40 41 41 41 42 42 42 41 41 42
1 3 5 5 5 7 8 10 14 18 21 23 21 16 10 11 17 20 20 21 22 23 24 26 27 29 30 32 34 35 37 37 39 40 41 42 41 41 41 41 41 41 41 42
4 2 4 5 6 9 6 8 15 21 24 22 17 14 11 15 21 23 24 24 24 25 26 27 28 30 32 34 35 36 37 38 40 40 41 41 41 40 40 40 41 41 41 41
9 5 6 8 9 9 7 8 13 17 21 25 19 17 18 19 20 21 23 24 25 26 27 29 30 32 33 34 36 37 38 39 40 40 40 40 40 40 40 40 41 41 41 41
9 8 11 11 9 9 8 8 10 10 12 16 20 21 20 20 20 21 23 24 25 27 28 30 31 33 34 36 37 38 39 39 40 40 39 40 40 40 40 40 41 41 41 41
8 7 8 12 9 9 9 8 7 4 8 8 13 20 21 22 22 23 24 25 27 28 30 31 32 34 36 37 38 39 40 40 40 40 40 40 40 40 40 40 41 41 42 42
9 5 4 8 11 10 9 9 8 6 7 6 9 22 22 22 23 24 26 27 29 30 31 32 34 35 37 38 40 41 41 41 41 40 40 40 40 40 40 41 42 42 43 44
8 5 3 6 9 9 10 10 10 10 10 9 9 22 23 23 24 26 27 28 29 31 32 34 35 37 38 40 41 42 42 42 42 42 42 41 41 40 40 41 42 43 44 46
9 6 4 8 9 9 11 13 13 12 11 10 10 21 26 27 27 29 29 30 31 32 33 35 36 38 39 41 42 43 44 44 43 43 43 42 41 41 42 43 44 45 47 49
9 8 6 6 9 10 11 14 16 14 13 13 16 20 25 26 27 28 30 31 32 34 35 37 38 40 41 42 43 44 44 44 44 44 43 43 42 42 43 45 46 47 48 50
9 8 9 9 11 12 13 14 16 16 16 16 18 21 25 26 27 29 30 32 33 35 37 39 41 42 42 43 44 45 45 45 45 44 44 43 42 43 44 45 46 48 49 51
12 11 11 9 9 13 14 15 16 17 18 18 20 23 26 27 28 30 31 33 35 37 39 40 42 42 43 43 44 45 46 46 45 45 44 43 43 44 45 46 47 48 50 50
13 12 10 8 8 11 14 16 18 19 20 22 23 24 26 27 28 30 31 34 36 38 40 41 42 43 44 44 45 46 46 46 46 45 45 44 44 44 45 46 48 49 49 49
11 11 10 9 8 9 15 17 18 20 21 22 23 25 27 28 31 32 32 35 37 40 41 43 44 44 45 45 46 47 47 47 46 46 45 44 44 44 45 47 48 49 47 46
15 14 13 13 11 10 15 20 18 20 23 21 23 24 26 28 32 35 36 39 41 42 43 44 45 45 45 45 46 46 47 47 46 45 44 44 44 44 45 47 48 47 45 44
19 18 17 16 15 13 15 19 19 23 26 24 25 26 27 29 30 34 37 40 41 43 43 44 45 46 46 46 46 47 47 47 46 45 44 43 43 45 45 46 46 44 42 41
23 21 20 20 19 18 23 21 23 25 27 26 27 28 28 29 31 34 37 40 41 42 44 45 46 47 47 47 46 47 47 47 46 44 43 43 43 44 45 46 44 42 40 39
20 19 21 22 21 23 27 26 26 26 25 26 27 27 28 30 32 35 38 40 41 42 44 45 46 47 48 48 47 47 47 47 45 44 43 42 43 44 45 44 42 39 38 37
19 20 21 21 23 27 29 28 27 27 26 26 26 27 29 31 34 36 38 40 41 42 43 45 46 47 48 48 48 48 47 46 45 43 42 41 42 43 44 42 39 38 37 35
20 25 24 21 21 26 28 28 28 27 27 27 27 28 30 32 34 36 38 40 41 42 43 44 46 47 48 48 49 48 47 46 44 43 42 41 41 42 42 40 38 37 35 32
21 25 26 25 25 26 27 27 27 27 27 27 28 30 31 33 35 37 38 40 41 42 43 44 45 47 48 49 49 48 47 46 44 43 41 40 41 42 41 39 37 35 33 31
24 26 27 26 26 28 27 28 28 27 27 28 29 31 33 35 36 37 39 40 41 42 42 43 45 47 48 49 49 48 47 46 44 42 40 40 40 40 40 38 36 34 32 29
Wind_Direction
76 206 245 223 214 261 298 308 303 283 275 274 285 289 289 286 287 288 287 287 285 284 283 283 284 284 285 286 287 288 290 290 291 291 291 290 290 290 289 288 286 285 283 282
263 254 246 297 298 269 269 279 273 275 282 285 287 289 288 288 289 292 294 293 291 290 288 289 289 289 289 291 291 291 293 294 294 293 293 292 292 291 290 289 287 285 284 283
290 292 272 274 268 256 248 249 257 276 289 285 281 277 269 284 293 302 303 302 300 297 296 296 296 295 296 296 295 296 297 297 297 296 295 295 294 293 292 291 289 287 285 283
303 323 308 283 261 253 257 257 260 278 286 282 271 270 277 297 306 313 313 312 309 305 303 302 301 301 302 301 301 301 301 301 300 300 299 298 297 295 293 292 291 289 286 284
306 302 289 283 280 278 288 284 272 277 279 275 273 274 279 315 325 329 323 319 319 314 310 309 308 308 308 307 307 307 307 305 304 302 301 300 299 297 295 294 292 290 288 286
153 315 303 287 285 285 285 297 302 298 290 283 284 292 310 343 343 337 331 326 324 321 318 317 315 314 313 313 313 312 311 310 308 306 304 303 301 299 297 295 294 292 290 289
93 42 348 318 294 279 281 308 310 316 328 331 339 341 341 352 343 338 334 331 328 326 324 323 322 321 320 318 317 316 314 313 311 308 306 304 302 300 298 296 294 292 291 289
15 15 334 315 305 301 313 315 316 324 330 331 343 352 349 344 339 335 331 330 328 328 328 327 326 325 323 322 320 319 317 315 313 311 308 304 302 299 297 295 293 291 289 287
354 339 330 326 312 312 303 291 294 316 331 337 343 336 336 337 337 336 333 331 330 330 329 328 328 328 327 325 323 321 319 318 315 312 309 305 302 299 296 293 292 290 288 286
335 330 326 337 341 332 328 320 316 331 331 343 336 318 323 328 332 332 331 330 330 330 329 329 328 328 327 326 324 323 321 319 316 313 309 306 302 299 295 292 290 289 288 287
328 328 324 333 335 329 325 330 334 328 316 322 325 307 321 324 328 328 328 328 328 328 328 328 327 327 326 326 324 324 322 320 317 314 311 308 304 301 297 294 292 290 288 286
327 326 298 289 319 331 329 328 330 331 331 334 331 305 318 324 327 327 326 326 326 327 327 327 327 327 326 326 325 324 323 321 319 316 313 310 307 304 300 297 295 293 291 289
325 321 312 310 314 331 332 324 323 322 324 322 310 299 316 322 326 326 326 326 326 327 328 328 328 327 326 326 325 324 323 322 320 318 315 312 309 306 303 301 299 297 294 292
316 309 294 308 309 307 308 312 312 313 312 305 299 302 309 318 322 324 326 327 328 329 329 329 329 328 327 326 325 324 324 323 322 319 316 313 310 308 306 304 303 301 299 297
306 299 289 287 292 296 299 301 305 310 313 312 311 312 314 322 324 327 329 330 331 331 330 329 329 328 327 327 326 326 325 325 323 321 319 315 313 311 310 309 307 306 304 302
304 297 293 292 293 301 312 313 312 316 318 318 317 316 319 324 326 330 332 331 332 332 331 330 330 330 329 328 328 327 327 327 326 323 321 318 316 315 314 313 312 310 309 307
301 303 299 289 285 304 315 308 311 316 318 319 319 318 321 324 326 331 333 331 332 332 332 332 332 332 332 331 330 329 329 329 327 325 323 321 319 319 317 317 316 315 313 311
306 309 307 298 297 310 304 302 307 310 312 317 318 320 323 326 327 331 334 333 335 335 336 336 335 335 334 333 332 332 332 331 329 327 325 323 322 322 321 321 320 319 318 316
315 315 313 311 305 300 296 301 310 312 313 319 318 320 323 327 328 330 335 336 338 338 338 338 337 336 336 335 334 334 333 333 331 329 327 326 325 325 325 324 324 323 321 319
305 307 308 308 308 306 298 299 315 312 311 322 320 324 326 327 328 331 334 336 337 338 338 338 339 338 338 337 336 336 335 334 333 331 330 328 328 328 328 328 327 327 325 324
298 307 311 311 313 310 298 309 308 306 312 317 319 322 323 325 328 330 333 335 336 337 339 339 340 340 340 339 338 337 337 336 334 333 332 331 330 331 331 331 331 330 329 329
292 294 293 296 298 289 295 302 302 303 307 310 314 317 320 323 326 330 333 335 336 338 339 340 340 341 340 340 339 339 338 337 336 335 333 333 333 333 334 334 333 332 332 332
292 291 291 291 289 291 296 300 301 302 305 309 312 316 319 323 326 330 333 335 336 337 338 339 340 341 341 341 340 340 340 339 338 336 335 335 335 335 336 337 336 336 336 336
286 288 295 298 294 291 296 298 299 301 304 308 311 315 318 322 325 329 332 334 334 335 337 338 340 341 341 341 341 341 341 340 339 338 337 337 337 338 339 339 339 339 339 338
289 288 294 298 298 296 297 298 300 302 305 308 311 314 317 321 324 327 330 332 333 334 336 337 338 340 341 341 341 341 342 342 341 340 339 339 340 341 341 342 342 341 340 340
291 291 295 299 299 300 301 301 302 304 306 308 310 313 316 319 323 326 328 330 332 333 334 336 338 339 340 341 342 342 342 343 342 342 341 340 341 343 344 344 344 343 342 342
Height
5865 5866 5866 5866 5867 5869 5869 5868 5862 5861 5865 5865 5866 5865 5863 5862 5860 5859 5858 5858 5857 5856 5855 5854 5852 5851 5849 5847 5844 5842 5839 5836 5833 5829 5826 5823 5820 5817 5814 5811 5810 5808 5806 5804
5867 5865 5864 5865 5867 5870 5871 5870 5867 5864 5867 5866 5864 5862 5859 5858 5857 5856 5855 5854 5853 5852 5851 5849 5847 5845 5843 5841 5838 5835 5832 5828 5825 5821 5817 5815 5812 5809 5805 5803 5801 5799 5797 5795
5864 5864 5864 5865 5869 5869 5869 5868 5867 5865 5865 5863 5860 5858 5853 5854 5854 5853 5852 5851 5850 5848 5846 5844 5842 5839 5836 5833 5830 5827 5824 5820 5816 5812 5809 5806 5803 5800 5796 5793 5791 5790 5788 5786
5865 5865 5865 5866 5866 5866 5866 5865 5865 5862 5859 5856 5855 5851 5850 5850 5849 5849 5849 5848 5846 5844 5841 5839 5836 5833 5829 5826 5822 5819 5815 5811 5807 5803 5799 5796 5792 5790 5787 5783 5781 5779 5777 5775
5865 5866 5866 5865 5864 5865 5863 5863 5862 5859 5856 5854 5849 5844 5843 5844 5844 5845 5845 5844 5841 5839 5836 5833 5830 5826 5823 5818 5814 5810 5807 5803 5798 5794 5789 5786 5782 5779 5775 5772 5770 5768 5766 5764
5863 5865 5865 5864 5864 5864 5864 5863 5861 5859 5855 5851 5846 5843 5841 5840 5842 5842 5841 5839 5837 5834 5831 5828 5824 5820 5816 5812 5807 5802 5798 5794 5789 5784 5780 5775 5772 5768 5765 5761 5759 5757 5754 5752
5861 5863 5864 5864 5864 5863 5862 5863 5861 5857 5851 5848 5845 5842 5840 5841 5842 5840 5837 5835 5833 5830 5827 5823 5819 5814 5810 5805 5800 5795 5790 5785 5780 5775 5770 5766 5761 5758 5754 5751 5749 5746 5744 5741
5862 5863 5864 5864 5863 5861 5861 5861 5861 5857 5854 5848 5842 5842 5842 5842 5842 5839 5836 5833 5830 5826 5822 5818 5813 5809 5804 5799 5793 5788 5783 5777 5772 5766 5761 5757 5752 5748 5745 5741 5738 5736 5733 5731
5865 5865 5864 5862 5861 5860 5860 5859 5859 5858 5856 5852 5847 5845 5844 5842 5840 5838 5835 5832 5828 5824 5819 5814 5809 5803 5798 5792 5787 5781 5775 5770 5764 5758 5753 5748 5743 5739 5735 5732 5728 5725 5723 5720
5866 5866 5865 5862 5861 5860 5859 5858 5857 5856 5855 5854 5852 5846 5845 5841 5839 5837 5833 5829 5825 5820 5815 5810 5804 5799 5793 5786 5780 5774 5768 5762 5756 5750 5744 5739 5734 5729 5725 5722 5718 5715 5712 5709
5866 5865 5864 5864 5861 5859 5859 5857 5855 5854 5853 5853 5852 5847 5844 5840 5838 5835 5831 5826 5821 5816 5811 5806 5800 5794 5787 5781 5774 5767 5760 5754 5747 5741 5735 5729 5724 5719 5714 5711 5707 5703 5700 5697
5865 5864 5863 5863 5860 5859 5858 5856 5855 5854 5852 5851 5851 5848 5842 5838 5835 5831 5827 5823 5818 5812 5807 5800 5794 5788 5781 5774 5767 5759 5752 5745 5738 5731 5725 5719 5713 5708 5703 5699 5694 5690 5686 5683
5864 5864 5863 5861 5860 5859 5858 5855 5854 5853 5851 5850 5850 5846 5839 5835 5832 5828 5823 5818 5813 5807 5801 5795 5788 5781 5774 5767 5759 5751 5743 5736 5728 5721 5714 5708 5702 5697 5692 5686 5681 5676 5671 5667
5863 5863 5863 5862 5860 5858 5858 5856 5853 5851 5849 5847 5846 5842 5838 5833 5830 5825 5820 5814 5808 5802 5795 5789 5782 5774 5767 5759 5751 5743 5735 5727 5719 5712 5705 5698 5692 5686 5680 5674 5668 5662 5655 5649
5862 5861 5860 5859 5858 5857 5855 5853 5851 5848 5846 5844 5842 5839 5834 5830 5826 5821 5815 5809 5803 5796 5789 5782 5775 5767 5759 5751 5743 5734 5726 5718 5710 5702 5695 5687 5681 5674 5667 5660 5654 5646 5639 5632
5859 5859 5857 5857 5856 5854 5853 5851 5848 5845 5843 5841 5838 5835 5830 5826 5821 5816 5811 5804 5798 5791 5784 5776 5768 5760 5751 5743 5734 5726 5717 5709 5701 5692 5685 5677 5670 5663 5655 5648 5640 5631 5623 5615
5857 5856 5855 5854 5853 5852 5851 5848 5845 5843 5840 5837 5834 5831 5826 5822 5817 5812 5806 5800 5793 5785 5777 5769 5760 5752 5743 5734 5726 5717 5708 5700 5691 5683 5675 5667 5659 5652 5643 5635 5626 5617 5608 5599
5855 5854 5853 5851 5851 5849 5850 5845 5843 5840 5837 5834 5830 5825 5821 5816 5811 5807 5802 5795 5787 5779 5770 5762 5753 5744 5736 5727 5718 5709 5700 5691 5683 5674 5666 5657 5649 5641 5632 5623 5614 5604 5594 5585
5853 5852 5850 5849 5847 5847 5845 5841 5839 5836 5832 5830 5826 5822 5818 5813 5806 5799 5795 5787 5780 5772 5764 5755 5746 5738 5729 5720 5711 5702 5692 5683 5674 5666 5657 5648 5640 5632 5622 5613 5603 5593 5583 5573
5850 5849 5848 5845 5844 5842 5842 5837 5835 5832 5827 5825 5820 5817 5812 5808 5804 5797 5789 5782 5775 5767 5758 5750 5741 5732 5723 5713 5704 5695 5685 5676 5667 5658 5649 5640 5632 5623 5613 5603 5593 5583 5573 5563
5847 5845 5843 5841 5840 5839 5834 5833 5832 5828 5824 5820 5815 5812 5808 5803 5798 5792 5785 5777 5769 5761 5753 5744 5735 5726 5717 5707 5698 5688 5679 5669 5660 5651 5642 5633 5624 5615 5605 5595 5585 5575 5565 5556
5845 5843 5841 5839 5836 5836 5829 5828 5826 5823 5819 5815 5811 5807 5803 5798 5792 5786 5779 5772 5764 5756 5747 5739 5730 5720 5711 5701 5692 5683 5673 5663 5654 5644 5636 5627 5617 5608 5598 5588 5578 5568 5559 5550
5841 5839 5836 5835 5834 5828 5825 5822 5819 5816 5813 5810 5806 5802 5798 5792 5787 5780 5774 5766 5759 5751 5742 5734 5725 5715 5706 5696 5686 5677 5667 5657 5648 5639 5630 5621 5612 5602 5592 5582 5572 5563 5554 5546
5836 5832 5830 5829 5827 5823 5819 5816 5813 5810 5807 5804 5801 5797 5792 5787 5781 5775 5768 5761 5754 5746 5737 5729 5720 5711 5701 5691 5681 5671 5662 5652 5642 5633 5624 5616 5606 5597 5587 5577 5568 5559 5550 5542
5830 5827 5824 5822 5820 5817 5814 5811 5808 5805 5802 5798 5795 5790 5786 5781 5775 5769 5762 5755 5748 5740 5732 5724 5715 5706 5696 5687 5676 5666 5657 5647 5638 5629 5620 5611 5602 5592 5583 5573 5564 5556 5548 5540
5823 5821 5819 5817 5814 5811 5808 5805 5802 5799 5796 5793 5789 5784 5779 5774 5768 5762 5756 5749 5742 5734 5727 5718 5710 5701 5692 5682 5672 5662 5652 5643 5634 5625 5616 5607 5598 5589 5579 5570 5562 5553 5546 5538